Location: Gro�sch�nbrunn
(49.5760°N, 11.8868°E)
Time: 13:19:48
(UTC+00:00)

NOSS 3-2 (A) - Pass Details

Date: 18 September 2020
Orbit: 795 x 1413 km, 63.4° (Epoch: 02 October)

Event Time Altitude Azimuth Distance (km) Brightness Sun altitude
Rises 18:09:30 0° 315° (NW) 3,856 7.7 -9.0°
Reaches altitude 10° 18:12:03 10° 320° (NW) 2,984 6.9 -9.4°
Maximum altitude 18:19:13 61° 40° (NE) 1,387 4.2 -10.6°
Enters shadow 18:26:32 14° 119° (ESE) 3,105 5.5 -11.7°
